Weather History for KAEX - August, 2012

Change the Weather History Date:

Friday, August 10, 2012

  Actual Average Record
Temperature  
Mean Temperature 83 °F 83 °F  
Max Temperature 95 °F 93 °F 104 °F (1924)
Min Temperature 71 °F 72 °F 57 °F (1893)
Cooling Degree Days 18 18  
Month to date cooling degree days 198 180  
Year to date cooling degree days 1941 1626  
Since 1 June cooling degree days 1256 1172  
Growing Degree Days 33 (Base 50)    
Moisture  
Dew Point 72 °F    
Average Humidity 74    
Maximum Humidity 94    
Minimum Humidity 53    
Precipitation  
Precipitation 0.93 in 0.09 in 2.45 in (1997)
Month to date precipitation 2.48 1.08  
Year to date precipitation 40.58 33.81  
Sea Level Pressure  
Sea Level Pressure 29.86 in    
Wind  
Wind Speed 6 mph (South)    
Max Wind Speed 20 mph    
Max Gust Speed 28 mph    
Visibility 8 miles    
Events Rain , Thunderstorm    
T = Trace of Precipitation, MM = Missing Value Source: NWS Daily Summary

Daily Weather History Graph

Daily Weather History Graph

Search for Another Location

Airport or City:

Trip Planner

Search our weather history database for the weather conditions in past years. The results will help you decide how hot, cold, wet, or windy it might be!

Date:

Astronomy

Aug. 10, 2012 Rise Set
Actual Time 6:32 AM CDT 7:57 PM CDT
Civil Twilight 6:07 AM CDT 8:23 PM CDT
Nautical Twilight 5:36 AM CDT 8:54 PM CDT
Astronomical Twilight 5:04 AM CDT 9:26 PM CDT
Moon 12:25 AM CDT (8/10) 2:32 PM CDT (8/10)
Length of Visible Light 14h 16m
Length of Day
13h 24m
Last Quarter, 41% of the Moon is Illuminated
Aug 10
Last Quarter
Aug 17
New
Aug 24
First Quarter
Aug 31
Full
Sep 8
Last Quarter

Hourly Weather History & Observations

Time (CDT) Temp. Heat Index Dew Point Humidity Pressure Visibility Wind Dir Wind Speed Gust Speed Precip Events Conditions
12:27 AM 75.2 °F - 66.2 °F 73% 29.92 in 10.0 mi East 10.4 mph 21.9 mph 0.00 in Rain , Thunderstorm Light Thunderstorms and Rain
12:53 AM 73.0 °F - 66.9 °F 81% 29.94 in 10.0 mi ENE 11.5 mph - 0.00 in Rain , Thunderstorm Light Thunderstorms and Rain
1:16 AM 71.6 °F - 69.8 °F 94% 29.93 in 1.5 mi East 17.3 mph - 0.28 in Rain , Thunderstorm Heavy Thunderstorms and Rain
1:28 AM 71.6 °F - 68.0 °F 88% 29.91 in 3.0 mi East 19.6 mph 26.5 mph 0.42 in Rain , Thunderstorm Heavy Thunderstorms and Rain
1:53 AM 71.1 °F - 68.0 °F 90% 29.88 in 7.0 mi SSW 11.5 mph - 0.51 in Rain , Thunderstorm Light Rain
2:16 AM 71.6 °F - 69.8 °F 94% 29.87 in 10.0 mi SSW 8.1 mph - 0.00 in   Partly Cloudy
2:53 AM 72.0 °F - 68.0 °F 87% 29.87 in 10.0 mi South 8.1 mph - 0.00 in   Clear
3:53 AM 72.0 °F - 68.0 °F 87% 29.84 in 10.0 mi SW 3.5 mph - N/A   Clear
4:53 AM 73.0 °F - 70.0 °F 90% 29.84 in 10.0 mi NW 5.8 mph - N/A   Scattered Clouds
5:00 AM 73.4 °F - 69.8 °F 88% 29.84 in 10.0 mi NW 6.9 mph - N/A   Mostly Cloudy
5:53 AM 75.0 °F - 71.1 °F 87% 29.86 in 9.0 mi Calm Calm - N/A Thunderstorm Mostly Cloudy
6:48 AM 73.4 °F - 71.6 °F 94% 29.89 in 9.0 mi SE 6.9 mph - 0.00 in   Partly Cloudy
6:53 AM 75.0 °F - 72.0 °F 90% 29.91 in 8.0 mi SE 6.9 mph - 0.00 in   Partly Cloudy
7:53 AM 75.0 °F - 72.0 °F 90% 29.88 in 8.0 mi SSW 4.6 mph - N/A   Clear
8:53 AM 78.1 °F - 75.0 °F 90% 29.88 in 7.0 mi SSW 3.5 mph - N/A   Clear
9:53 AM 84.0 °F 91.9 °F 75.0 °F 74% 29.88 in 10.0 mi WSW 6.9 mph - N/A   Clear
10:53 AM 87.1 °F 97.3 °F 75.9 °F 69% 29.88 in 10.0 mi SSW 9.2 mph - N/A   Clear
11:53 AM 90.0 °F 101.3 °F 75.9 °F 63% 29.87 in 10.0 mi SW 10.4 mph - N/A   Clear
12:53 PM 90.0 °F 100.2 °F 75.0 °F 61% 29.86 in 10.0 mi SSW 11.5 mph - N/A   Clear
1:53 PM 93.0 °F 105.3 °F 75.9 °F 57% 29.83 in 10.0 mi Variable 6.9 mph - N/A   Clear
2:53 PM 93.0 °F 105.3 °F 75.9 °F 57% 29.81 in 10.0 mi SSW 8.1 mph - N/A   Mostly Cloudy
3:53 PM 95.0 °F 106.7 °F 75.0 °F 52% 29.80 in 10.0 mi West 8.1 mph - N/A   Clear
4:53 PM 93.9 °F 106.9 °F 75.9 °F 56% 29.79 in 10.0 mi WSW 3.5 mph - N/A   Mostly Cloudy
5:53 PM 91.0 °F 104.2 °F 77.0 °F 63% 29.77 in 10.0 mi South 6.9 mph - N/A   Mostly Cloudy
6:38 PM 86.0 °F 95.1 °F 75.2 °F 70% 29.75 in 6.0 mi SSW 5.8 mph - 0.01 in Rain , Thunderstorm Thunderstorms and Rain
6:45 PM 84.2 °F 96.1 °F 78.8 °F 84% 29.77 in 1.8 mi SSE 8.1 mph - 0.08 in Rain , Thunderstorm Heavy Thunderstorms and Rain
6:53 PM 82.9 °F 91.8 °F 77.0 °F 82% 29.78 in 4.0 mi South 5.8 mph - 0.12 in Rain , Thunderstorm Light Thunderstorms and Rain
7:53 PM 75.9 °F - 71.1 °F 85% 29.85 in 3.0 mi SSE 9.2 mph - 0.11 in Rain , Thunderstorm Light Thunderstorms and Rain
8:53 PM 75.9 °F - 72.0 °F 87% 29.88 in 10.0 mi ESE 4.6 mph - 0.15 in   Partly Cloudy
9:53 PM 75.9 °F - 72.0 °F 87% 29.88 in 10.0 mi SE 5.8 mph - 0.04 in   Clear
10:53 PM 75.0 °F - 73.0 °F 94% 29.86 in 7.0 mi Calm Calm - N/A   Clear
11:53 PM 73.9 °F - 72.0 °F 93% 29.86 in 8.0 mi Calm Calm - N/A   Clear